Total_Precipitation_Accumulation
0.07 0.08 0.04 0.03 0.02 0.02 0.01 0.01 0.00 0.00 0.00 0.00 0.00 0.00 0.00 0.00 0.00 0.00 0.00 0.00 0.01 0.02 0.03 0.04 0.05 0.05 0.06 0.08 0.08 0.07 0.06 0.05 0.05 0.05 0.03 0.02 0.02 0.01 0.02 0.02 0.03 0.03 0.03
0.08 0.07 0.04 0.04 0.02 0.02 0.01 0.01 0.00 0.00 0.00 0.00 0.00 0.00 0.00 0.00 0.00 0.00 0.00 0.01 0.02 0.03 0.06 0.08 0.08 0.08 0.09 0.11 0.11 0.10 0.10 0.09 0.10 0.10 0.09 0.08 0.06 0.06 0.06 0.05 0.05 0.05 0.04
0.04 0.04 0.04 0.05 0.03 0.03 0.03 0.03 0.02 0.02 0.01 0.01 0.01 0.01 0.01 0.01 0.01 0.01 0.02 0.02 0.03 0.05 0.07 0.09 0.10 0.10 0.10 0.12 0.13 0.13 0.13 0.13 0.13 0.13 0.12 0.13 0.13 0.12 0.12 0.12 0.11 0.10 0.09
0.04 0.06 0.08 0.09 0.09 0.09 0.09 0.08 0.07 0.06 0.07 0.06 0.05 0.05 0.05 0.05 0.05 0.05 0.05 0.06 0.07 0.08 0.08 0.09 0.10 0.10 0.09 0.08 0.10 0.12 0.13 0.13 0.15 0.16 0.16 0.18 0.19 0.19 0.18 0.18 0.18 0.17 0.15
0.11 0.15 0.18 0.20 0.21 0.19 0.18 0.17 0.16 0.14 0.12 0.10 0.07 0.07 0.06 0.05 0.07 0.08 0.09 0.10 0.09 0.08 0.06 0.06 0.07 0.07 0.06 0.07 0.07 0.07 0.08 0.10 0.14 0.16 0.16 0.18 0.23 0.25 0.24 0.24 0.25 0.24 0.21
0.30 0.33 0.32 0.33 0.32 0.28 0.26 0.22 0.18 0.15 0.12 0.10 0.07 0.05 0.04 0.04 0.06 0.06 0.06 0.05 0.04 0.03 0.03 0.03 0.03 0.03 0.03 0.04 0.03 0.03 0.04 0.05 0.08 0.11 0.12 0.15 0.21 0.23 0.22 0.21 0.21 0.22 0.23
0.58 0.55 0.51 0.49 0.44 0.39 0.35 0.29 0.22 0.17 0.14 0.11 0.07 0.04 0.02 0.02 0.01 0.01 0.01 0.01 0.01 0.01 0.01 0.00 0.00 0.00 0.00 0.01 0.01 0.01 0.02 0.03 0.05 0.08 0.10 0.13 0.17 0.20 0.20 0.19 0.19 0.20 0.21
0.88 0.82 0.77 0.72 0.63 0.55 0.46 0.37 0.29 0.21 0.14 0.09 0.05 0.02 0.01 0.00 0.00 0.00 0.00 0.00 0.00 0.00 0.00 0.00 0.00 0.00 0.00 0.00 0.00 0.00 0.01 0.01 0.02 0.06 0.11 0.19 0.22 0.23 0.23 0.23 0.22 0.22 0.22
1.15 1.05 0.94 0.84 0.73 0.63 0.53 0.41 0.28 0.17 0.10 0.04 0.02 0.01 0.01 0.00 0.00 0.00 0.00 0.00 0.00 0.00 0.00 0.00 0.00 0.00 0.00 0.00 0.00 0.01 0.01 0.01 0.02 0.03 0.09 0.16 0.21 0.23 0.23 0.23 0.24 0.26 0.27
1.08 0.94 0.90 0.84 0.72 0.56 0.41 0.27 0.16 0.08 0.04 0.02 0.01 0.01 0.01 0.01 0.01 0.01 0.00 0.00 0.00 0.00 0.00 0.00 0.00 0.00 0.00 0.00 0.02 0.03 0.02 0.02 0.02 0.03 0.04 0.07 0.10 0.14 0.18 0.25 0.29 0.30 0.31
0.86 0.78 0.73 0.64 0.50 0.34 0.20 0.11 0.06 0.03 0.01 0.01 0.01 0.01 0.01 0.01 0.01 0.01 0.01 0.00 0.00 0.00 0.00 0.00 0.00 0.00 0.00 0.01 0.04 0.06 0.05 0.03 0.02 0.03 0.04 0.07 0.09 0.11 0.14 0.19 0.24 0.28 0.30
0.50 0.43 0.34 0.26 0.19 0.12 0.06 0.03 0.02 0.01 0.01 0.01 0.01 0.00 0.00 0.00 0.00 0.01 0.01 0.01 0.01 0.00 0.00 0.00 0.00 0.00 0.00 0.01 0.02 0.03 0.04 0.04 0.04 0.03 0.04 0.04 0.05 0.06 0.09 0.14 0.19 0.25 0.29
0.23 0.18 0.12 0.08 0.05 0.03 0.02 0.01 0.01 0.00 0.00 0.00 0.00 0.00 0.00 0.00 0.01 0.01 0.01 0.02 0.02 0.01 0.00 0.00 0.00 0.00 0.00 0.00 0.01 0.01 0.04 0.05 0.04 0.03 0.02 0.02 0.02 0.03 0.04 0.07 0.11 0.16 0.23
0.11 0.07 0.05 0.03 0.02 0.02 0.01 0.01 0.00 0.00 0.00 0.00 0.00 0.00 0.00 0.00 0.01 0.01 0.01 0.02 0.03 0.01 0.00 0.00 0.00 0.00 0.00 0.00 0.00 0.01 0.04 0.05 0.04 0.03 0.03 0.02 0.02 0.02 0.02 0.03 0.05 0.07 0.09
0.05 0.03 0.02 0.02 0.01 0.01 0.00 0.00 0.00 0.00 0.00 0.00 0.00 0.00 0.00 0.00 0.01 0.01 0.02 0.03 0.07 0.08 0.04 0.01 0.00 0.00 0.00 0.00 0.01 0.02 0.05 0.05 0.05 0.05 0.04 0.03 0.02 0.02 0.02 0.03 0.03 0.03 0.04
0.03 0.02 0.02 0.01 0.01 0.00 0.00 0.00 0.00 0.00 0.00 0.00 0.01 0.01 0.02 0.02 0.02 0.03 0.04 0.05 0.07 0.12 0.10 0.03 0.01 0.00 0.01 0.01 0.02 0.04 0.05 0.04 0.06 0.06 0.06 0.05 0.04 0.04 0.04 0.04 0.04 0.05 0.04
0.01 0.01 0.00 0.00 0.00 0.00 0.00 0.00 0.00 0.00 0.01 0.01 0.02 0.02 0.03 0.04 0.05 0.05 0.05 0.05 0.06 0.09 0.11 0.05 0.02 0.02 0.04 0.06 0.07 0.10 0.09 0.10 0.10 0.13 0.13 0.12 0.10 0.09 0.08 0.09 0.09 0.09 0.08
0.01 0.00 0.00 0.00 0.00 0.00 0.01 0.01 0.01 0.02 0.03 0.03 0.03 0.04 0.04 0.04 0.06 0.05 0.05 0.05 0.05 0.07 0.10 0.09 0.06 0.05 0.07 0.09 0.11 0.11 0.07 0.06 0.09 0.14 0.14 0.11 0.10 0.09 0.09 0.08 0.08 0.07 0.06
0.01 0.01 0.01 0.01 0.01 0.01 0.01 0.01 0.02 0.02 0.02 0.03 0.03 0.03 0.03 0.04 0.04 0.04 0.05 0.06 0.07 0.08 0.13 0.16 0.13 0.11 0.09 0.08 0.10 0.09 0.09 0.13 0.11 0.11 0.10 0.08 0.06 0.05 0.05 0.04 0.05 0.04 0.04
0.02 0.02 0.02 0.02 0.02 0.01 0.01 0.01 0.01 0.01 0.01 0.01 0.01 0.02 0.02 0.02 0.03 0.06 0.07 0.09 0.12 0.14 0.16 0.18 0.15 0.11 0.09 0.08 0.11 0.10 0.11 0.13 0.13 0.09 0.08 0.05 0.04 0.02 0.03 0.04 0.04 0.04 0.03
0.03 0.03 0.02 0.01 0.01 0.00 0.00 0.00 0.00 0.00 0.00 0.00 0.01 0.01 0.01 0.02 0.04 0.09 0.11 0.14 0.18 0.20 0.20 0.20 0.17 0.13 0.09 0.08 0.10 0.12 0.15 0.14 0.10 0.07 0.06 0.06 0.07 0.08 0.09 0.10 0.09 0.07 0.03
0.02 0.01 0.00 0.00 0.00 0.00 0.00 0.00 0.00 0.00 0.00 0.01 0.02 0.02 0.01 0.01 0.03 0.06 0.09 0.13 0.19 0.23 0.22 0.22 0.19 0.16 0.11 0.12 0.16 0.20 0.25 0.22 0.16 0.09 0.11 0.09 0.08 0.09 0.12 0.15 0.17 0.12 0.07
0.00 0.00 0.00 0.00 0.00 0.00 0.00 0.00 0.00 0.00 0.01 0.02 0.03 0.04 0.03 0.02 0.04 0.07 0.07 0.08 0.09 0.10 0.17 0.24 0.25 0.20 0.19 0.22 0.32 0.36 0.32 0.30 0.25 0.20 0.25 0.21 0.13 0.14 0.15 0.21 0.29 0.25 0.18
0.00 0.00 0.01 0.00 0.01 0.01 0.00 0.00 0.00 0.00 0.01 0.02 0.03 0.04 0.05 0.05 0.06 0.07 0.06 0.05 0.04 0.07 0.13 0.21 0.28 0.30 0.32 0.35 0.43 0.46 0.43 0.38 0.29 0.24 0.30 0.30 0.17 0.18 0.21 0.31 0.44 0.44 0.34
0.00 0.01 0.00 0.01 0.01 0.02 0.00 0.00 0.00 0.01 0.01 0.01 0.02 0.02 0.04 0.06 0.07 0.09 0.07 0.07 0.07 0.08 0.15 0.30 0.41 0.47 0.49 0.51 0.51 0.49 0.47 0.42 0.35 0.26 0.28 0.34 0.27 0.22 0.27 0.42 0.50 0.60 0.52
0.01 0.00 0.00 0.01 0.02 0.04 0.01 0.00 0.01 0.01 0.02 0.01 0.01 0.02 0.04 0.07 0.09 0.09 0.07 0.09 0.13 0.15 0.27 0.46 0.55 0.57 0.52 0.51 0.51 0.49 0.45 0.43 0.40 0.38 0.32 0.34 0.34 0.28 0.34 0.50 0.57 0.52 0.46